Location: Eaton
(41.3139°N, 82.0207°W)
Time: 16:50:08
(UTC+00:00)

Cosmos 1607 - Pass Details

Date: 17 June 2021
Orbit: 911 x 991 km, 65.0° (Epoch: 01 August)

Event Time Altitude Azimuth Distance (km) Brightness Sun altitude
Rises 05:34:23 0° 324° (NW) 3,693 7.8 -25.3°
Reaches altitude 10° 05:37:00 10° 322° (NW) 2,733 7.0 -25.3°
Maximum altitude 05:43:20 65° 242° (WSW) 1,056 4.0 -25.2°
Enters shadow 05:44:11 59° 203° (SSW) 1,107 3.9 -25.2°
